Flag Weather past 2 weeks in Vitória da Conquista, Bahia, Brazil

Now
75 °F

Scattered clouds.


Feels Like: 75 °F
Forecast: 59 / 79 °F
Wind: 2 mph from Northwest

Location: Salvador Aeroporto

Current Time: Nov 27, 2014 at 6:47:52 AM

Latest Report: Nov 27, 2014 at 6:00 AM


Visibility: N/A

Pressure: 29.95 "Hg

Humidity: 83%

Dew point: 70 °F

Location of Vitória da ConquistaLocation

Historic Weather in Vitória da Conquista — Graph

°F

Vitória da Conquista temperature yesterday

Maximum temperature yesterday: 84 °F (at 1:00 PM)
Minimum temperature yesterday: 75 °F (at 2:00 AM)
Average temperature yesterday: 79 °F

Past Weeks' High & Low Weather Summary

 TemperatureHumidityPressure
High86 °F (Nov 12, 12:00 PM)100% (Nov 16, 4:00 PM)30.07 "Hg (Nov 16, 4:00 PM)
Low37 °F (Nov 18, 5:00 AM)58% (Nov 26, 1:00 PM)29.77 "Hg (Nov 12, 3:00 PM)
Average77 °F78%29.91 "Hg
* Reported Nov 12 5:00 AM — Nov 27 5:00 AM, Vitória da Conquista, Weather by CustomWeather, © 2014

Note: Actual official high and low records may vary slightly from our data, if they occured in-between our weather recording intervals... More about our weather records

Advertising

Vitória da Conquista weather history for previous 24 hours

 ConditionsComfort  
Time TempWeatherWind HumidityBarometerVisibility
5:00 AM
Nov 27
73 °FPassing clouds.No wind83%29.92 "HgN/A
4:00 AM73 °FPassing clouds.3 mph83%29.92 "HgN/A
3:00 AM75 °FPassing clouds.3 mph83%29.92 "HgN/A
2:00 AM75 °FPassing clouds.3 mph83%29.89 "HgN/A
1:00 AM75 °FPassing clouds.3 mph83%29.92 "HgN/A
12:00 AM77 °FPassing clouds.8 mph79%29.92 "HgN/A
11:00 PM
Nov 26
77 °FPassing clouds.8 mph79%29.92 "HgN/A
10:00 PM79 °FPassing clouds.8 mph74%29.95 "HgN/A
9:00 PM79 °FPassing clouds.13 mph74%29.95 "HgN/A
8:00 PM79 °FPassing clouds.12 mph74%29.92 "HgN/A
7:00 PM77 °FPassing clouds.12 mph74%29.89 "HgN/A
6:00 PM79 °FScattered clouds.13 mph70%29.89 "HgN/A
5:00 PM81 °FScattered clouds.16 mph62%29.89 "HgN/A
4:00 PM82 °FScattered clouds.15 mph62%29.89 "HgN/A
3:00 PM82 °FScattered clouds.16 mph66%29.89 "HgN/A
2:00 PM82 °FScattered clouds.14 mph66%29.92 "HgN/A
1:00 PM84 °FScattered clouds.14 mph58%29.92 "HgN/A
12:00 PM82 °FScattered clouds.15 mph66%29.95 "HgN/A
11:00 AM82 °FScattered clouds.13 mph66%29.98 "HgN/A
10:00 AM82 °FScattered clouds.12 mph66%29.98 "HgN/A
9:00 AM81 °FScattered clouds.9 mph70%29.95 "HgN/A
8:00 AM81 °FScattered clouds.12 mph66%29.95 "HgN/A
7:00 AM81 °FScattered clouds.12 mph66%29.95 "HgN/A
6:00 AM75 °FScattered clouds.3 mph78%29.92 "HgN/A
Weather by CustomWeather, © 2014

See weather overviewHow to use our weather pages